Location: Limoges
(45.8354°N, 1.2645°E)
Time: 19:49:13
(UTC+02:00)

Courier 1B Rocket - Pass Details

Date: 02 March 2024
Orbit: 920 x 1201 km, 28.2° (Epoch: 20 April)

Event Time Altitude Azimuth Distance (km) Brightness Sun altitude
Rises 01:25:14 0° 220° (SW) 3,775 - -51.1°
Reaches altitude 10° 01:29:40 10° 194° (SSW) 2,757 - -50.9°
Maximum altitude 01:32:32 13° 169° (SSE) 2,497 - -50.9°
Drops below altitude 10° 01:35:20 10° 142° (SE) 2,684 - -50.8°
Sets 01:39:31 0° 116° (ESE) 3,588 - -50.6°
